JAL3741 RJFK-RJFG

Flight info

Callsign JAL3741
Flight time 0h 24m
Altitude 11000
Route HKC Y14 TGE
Aircraft AT76/M-SDFGIRY/S

Departure

Time 2026-05-08 12:55
Airport Kagoshima Airport (RJFK)

Arrival

Time 2026-05-08 13:20
Airport New Tanegashima Airport (RJFG)
Time Latitude Longitude Altitude Speed Heading
2026-05-08 12:30 31.79904 130.71834 866 ft 0 kts
2026-05-08 12:47 31.79906 130.71834 861 ft 0 kts 13°
2026-05-08 12:47 31.79916 130.71850 861 ft 5 kts 68°
2026-05-08 12:47 31.79881 130.71892 860 ft 12 kts 150°
2026-05-08 12:47 31.79802 130.71953 858 ft 7 kts 109°
2026-05-08 12:48 31.79825 130.72013 858 ft 9 kts 58°
2026-05-08 12:48 31.79822 130.72065 858 ft 8 kts 146°
2026-05-08 12:48 31.79750 130.72114 857 ft 16 kts 150°
2026-05-08 12:48 31.79651 130.72181 853 ft 18 kts 150°
2026-05-08 12:49 31.79534 130.72259 853 ft 20 kts 150°
2026-05-08 12:49 31.79409 130.72344 852 ft 21 kts 150°
2026-05-08 12:49 31.79276 130.72433 851 ft 22 kts 150°
2026-05-08 12:49 31.79154 130.72516 851 ft 16 kts 150°
2026-05-08 12:50 31.79119 130.72592 849 ft 8 kts 76°
2026-05-08 12:50 31.79140 130.72641 847 ft 0 kts 59°
2026-05-08 12:53 31.79142 130.72645 847 ft 3 kts 59°
2026-05-08 12:53 31.79186 130.72713 846 ft 11 kts 29°
2026-05-08 12:53 31.79231 130.72689 847 ft 6 kts 328°
2026-05-08 12:53 31.79234 130.72686 848 ft 0 kts 330°
2026-05-08 12:54 31.79277 130.72658 849 ft 28 kts 330°
2026-05-08 12:54 31.79628 130.72420 854 ft 87 kts 330°
2026-05-08 12:55 31.80276 130.71985 972 ft 119 kts 331°
2026-05-08 12:55 31.81033 130.71475 1356 ft 132 kts 330°
2026-05-08 12:55 31.81831 130.70896 1893 ft 136 kts 330°
2026-05-08 12:55 31.82683 130.70275 2055 ft 156 kts 330°
2026-05-08 12:56 31.83670 130.69563 2166 ft 172 kts 330°
2026-05-08 12:56 31.84710 130.68828 2581 ft 175 kts 331°
2026-05-08 12:56 31.85743 130.68062 2972 ft 175 kts 328°
2026-05-08 12:56 31.86766 130.67281 3481 ft 175 kts 331°
2026-05-08 12:57 31.87769 130.66504 3880 ft 176 kts 324°
2026-05-08 12:57 31.88324 130.65189 4326 ft 195 kts 280°
2026-05-08 12:57 31.87892 130.63631 4684 ft 214 kts 237°
2026-05-08 12:57 31.86636 130.62646 5025 ft 224 kts 200°
2026-05-08 12:58 31.85153 130.62204 5552 ft 214 kts 197°
2026-05-08 12:58 31.83710 130.62025 6220 ft 204 kts 180°
2026-05-08 12:58 31.82360 130.62338 6839 ft 190 kts 165°
2026-05-08 12:58 31.81126 130.62440 7289 ft 177 kts 192°
2026-05-08 12:59 31.79892 130.62302 7561 ft 179 kts 194°
2026-05-08 12:59 31.78655 130.62088 7854 ft 181 kts 194°
2026-05-08 12:59 31.77411 130.61813 8225 ft 182 kts 201°
2026-05-08 12:59 31.76187 130.61393 8556 ft 184 kts 205°
2026-05-08 13:00 31.74953 130.60919 8861 ft 189 kts 206°
2026-05-08 13:00 31.73690 130.60413 9137 ft 194 kts 206°
2026-05-08 13:00 31.72420 130.59891 9483 ft 194 kts 206°
2026-05-08 13:00 31.71145 130.59366 9805 ft 194 kts 206°
2026-05-08 13:01 31.69866 130.58851 10094 ft 195 kts 203°
2026-05-08 13:01 31.68494 130.58826 10424 ft 201 kts 179°
2026-05-08 13:01 31.67109 130.59161 10694 ft 204 kts 171°
2026-05-08 13:01 31.65732 130.59653 10909 ft 211 kts 168°
2026-05-08 13:02 31.64310 130.60222 10974 ft 221 kts 168°
2026-05-08 13:02 31.62820 130.60821 11006 ft 231 kts 167°
2026-05-08 13:02 31.61267 130.61446 11016 ft 240 kts 167°
2026-05-08 13:02 31.59653 130.62078 11077 ft 249 kts 167°
2026-05-08 13:03 31.57990 130.62723 11079 ft 255 kts 167°
2026-05-08 13:03 31.56280 130.63374 11079 ft 261 kts 167°
2026-05-08 13:03 31.54539 130.64031 11135 ft 265 kts 167°
2026-05-08 13:03 31.52771 130.64693 11079 ft 268 kts 167°
2026-05-08 13:04 31.50987 130.65364 11058 ft 270 kts 167°
2026-05-08 13:04 31.49220 130.66033 11044 ft 271 kts 167°
2026-05-08 13:04 31.47402 130.66720 11036 ft 271 kts 167°
2026-05-08 13:04 31.45631 130.67387 11035 ft 271 kts 167°
2026-05-08 13:05 31.43813 130.68071 11031 ft 271 kts 167°
2026-05-08 13:05 31.42041 130.68734 11028 ft 271 kts 167°
2026-05-08 13:05 31.40249 130.69408 11030 ft 271 kts 167°
2026-05-08 13:05 31.38454 130.70083 11032 ft 271 kts 167°
2026-05-08 13:06 31.36662 130.70755 11028 ft 270 kts 167°
2026-05-08 13:06 31.34872 130.71426 11035 ft 270 kts 167°
2026-05-08 13:06 31.33079 130.72101 11026 ft 270 kts 167°
2026-05-08 13:06 31.31290 130.72767 11031 ft 270 kts 167°
2026-05-08 13:07 31.29498 130.73437 11024 ft 270 kts 167°
2026-05-08 13:07 31.27707 130.74109 11030 ft 270 kts 167°
2026-05-08 13:07 31.25918 130.74779 11034 ft 270 kts 167°
2026-05-08 13:07 31.24129 130.75447 11022 ft 270 kts 167°
2026-05-08 13:08 31.22342 130.76116 11025 ft 270 kts 167°
2026-05-08 13:08 31.20549 130.76783 11068 ft 270 kts 167°
2026-05-08 13:08 31.18751 130.77450 11084 ft 272 kts 167°
2026-05-08 13:08 31.16944 130.78124 11061 ft 273 kts 167°
2026-05-08 13:09 31.15122 130.78803 10929 ft 277 kts 167°
2026-05-08 13:09 31.13301 130.79475 10781 ft 271 kts 167°
2026-05-08 13:09 31.11514 130.80129 10608 ft 267 kts 166°
2026-05-08 13:09 31.09768 130.80777 10564 ft 258 kts 167°
2026-05-08 13:10 31.08110 130.81394 10482 ft 252 kts 167°
2026-05-08 13:10 31.06418 130.82019 10178 ft 257 kts 167°
2026-05-08 13:10 31.04700 130.82653 9866 ft 261 kts 167°
2026-05-08 13:10 31.02958 130.83298 9516 ft 264 kts 166°
2026-05-08 13:11 31.01202 130.83950 9165 ft 266 kts 166°
2026-05-08 13:11 30.99433 130.84609 8834 ft 268 kts 166°
2026-05-08 13:11 30.97655 130.85274 8482 ft 269 kts 165°
2026-05-08 13:11 30.95870 130.85940 8152 ft 270 kts 165°
2026-05-08 13:12 30.94080 130.86605 7815 ft 270 kts 165°
2026-05-08 13:12 30.92286 130.87272 7477 ft 270 kts 165°
2026-05-08 13:12 30.90489 130.87932 7148 ft 271 kts 165°
2026-05-08 13:12 30.88695 130.88582 6821 ft 269 kts 165°
2026-05-08 13:13 30.86919 130.89236 6494 ft 266 kts 164°
2026-05-08 13:13 30.85159 130.89888 6145 ft 265 kts 163°
2026-05-08 13:13 30.83406 130.90545 5810 ft 264 kts 163°
2026-05-08 13:13 30.81663 130.91200 5448 ft 263 kts 163°
2026-05-08 13:14 30.79934 130.91843 5081 ft 259 kts 163°
2026-05-08 13:14 30.78227 130.92477 4712 ft 257 kts 163°
2026-05-08 13:14 30.76533 130.93105 4323 ft 255 kts 163°
2026-05-08 13:14 30.74875 130.93721 3956 ft 253 kts 162°
2026-05-08 13:15 30.73198 130.94331 3585 ft 252 kts 163°
2026-05-08 13:15 30.71528 130.94934 3219 ft 251 kts 163°
2026-05-08 13:15 30.69862 130.95530 2845 ft 250 kts 163°
2026-05-08 13:15 30.68214 130.96150 2639 ft 245 kts 154°
2026-05-08 13:16 30.66950 130.97394 2486 ft 235 kts 123°
2026-05-08 13:16 30.66070 130.98938 2348 ft 224 kts 121°
2026-05-08 13:16 30.65267 131.00415 2250 ft 204 kts 121°
2026-05-08 13:16 30.64560 131.01689 2284 ft 174 kts 117°
2026-05-08 13:17 30.63940 131.02826 2258 ft 162 kts 117°
2026-05-08 13:17 30.63369 131.03908 2277 ft 154 kts 117°
2026-05-08 13:17 30.62785 131.04919 2087 ft 151 kts 132°
2026-05-08 13:17 30.61841 131.05304 2170 ft 143 kts 195°
2026-05-08 13:18 30.60966 131.04864 2188 ft 136 kts 212°
2026-05-08 13:18 30.60104 131.04394 2173 ft 142 kts 212°
2026-05-08 13:18 30.59205 131.03878 1861 ft 143 kts 223°
2026-05-08 13:18 30.58856 131.02953 1673 ft 118 kts 286°
2026-05-08 13:19 30.59063 131.02076 1486 ft 111 kts 292°
2026-05-08 13:19 30.59378 131.01252 1206 ft 110 kts 295°
2026-05-08 13:19 30.59757 131.00507 949 ft 105 kts 301°
2026-05-08 13:19 30.60148 130.99803 770 ft 98 kts 303°
2026-05-08 13:20 30.60428 130.99296 770 ft 47 kts 304°
2026-05-08 13:20 30.60551 130.99080 772 ft 24 kts 303°
2026-05-08 13:20 30.60637 130.98959 775 ft 15 kts 347°
2026-05-08 13:20 30.60721 130.99006 776 ft 13 kts 33°
2026-05-08 13:21 30.60796 130.99060 776 ft 12 kts 31°
2026-05-08 13:21 30.60865 130.99083 776 ft 8 kts 26°
2026-05-08 13:21 30.60870 130.99125 776 ft 1 kts 130°
2026-05-08 13:21 30.60869 130.99126 776 ft 0 kts 129°